"Date","Average Accumulated Water Year PPT (in)","Average SWE (in)"
10/01/1981,0.035,0.000
10/02/1981,0.062,0.000
10/03/1981,0.066,0.000
10/04/1981,0.069,0.000
10/05/1981,0.069,0.000
10/06/1981,0.069,0.000
10/07/1981,0.069,0.000
10/08/1981,0.069,0.000
10/09/1981,0.069,0.000
10/10/1981,0.069,0.000
10/11/1981,0.078,0.000
10/12/1981,0.235,0.000
10/13/1981,0.285,0.000
10/14/1981,0.287,0.000
10/15/1981,0.290,0.000
10/16/1981,0.291,0.000
10/17/1981,0.291,0.000
10/18/1981,0.291,0.000
10/19/1981,0.291,0.000
10/20/1981,0.291,0.000
10/21/1981,0.291,0.000
10/22/1981,0.291,0.000
10/23/1981,0.291,0.000
10/24/1981,0.291,0.000
10/25/1981,0.291,0.000
10/26/1981,0.291,0.000
10/27/1981,0.302,0.000
10/28/1981,0.302,0.000
10/29/1981,0.409,0.000
10/30/1981,0.463,0.000
10/31/1981,0.464,0.000
11/01/1981,0.464,0.000
11/02/1981,0.464,0.000
11/03/1981,0.464,0.000
11/04/1981,0.464,0.000
11/05/1981,0.464,0.000
11/06/1981,0.465,0.000
11/07/1981,0.465,0.000
11/08/1981,0.465,0.000
11/09/1981,0.465,0.000
11/10/1981,0.465,0.000
11/11/1981,0.465,0.000
11/12/1981,0.465,0.000
11/13/1981,0.465,0.000
11/14/1981,0.465,0.000
11/15/1981,0.465,0.000
11/16/1981,0.465,0.000
11/17/1981,0.465,0.000
11/18/1981,0.467,0.000
11/19/1981,0.471,0.000
11/20/1981,0.471,0.000
11/21/1981,0.471,0.000
11/22/1981,0.471,0.000
11/23/1981,0.471,0.000
11/24/1981,0.471,0.000
11/25/1981,0.471,0.000
11/26/1981,0.479,0.000
11/27/1981,0.792,0.001
11/28/1981,1.231,0.004
11/29/1981,1.789,0.007
11/30/1981,2.062,0.011
12/01/1981,2.063,0.006
12/02/1981,2.063,0.004
12/03/1981,2.063,0.003
12/04/1981,2.063,0.002
12/05/1981,2.063,0.001
12/06/1981,2.063,0.000
12/07/1981,2.063,0.000
12/08/1981,2.063,0.000
12/09/1981,2.063,0.000
12/10/1981,2.063,0.000
12/11/1981,2.063,0.000
12/12/1981,2.064,0.000
12/13/1981,2.064,0.000
12/14/1981,2.064,0.000
12/15/1981,2.064,0.000
12/16/1981,2.064,0.000
12/17/1981,2.064,0.000
12/18/1981,2.064,0.000
12/19/1981,2.064,0.000
12/20/1981,2.065,0.000
12/21/1981,2.083,0.000
12/22/1981,2.102,0.000
12/23/1981,2.102,0.000
12/24/1981,2.102,0.000
12/25/1981,2.102,0.000
12/26/1981,2.102,0.000
12/27/1981,2.102,0.000
12/28/1981,2.102,0.000
12/29/1981,2.102,0.000
12/30/1981,2.137,0.000
12/31/1981,2.857,0.000
01/01/1982,3.051,0.000
01/02/1982,3.662,0.037
01/03/1982,4.199,0.133
01/04/1982,4.308,0.133
01/05/1982,4.348,0.104
01/06/1982,4.634,0.081
01/07/1982,4.715,0.078
01/08/1982,4.715,0.078
01/09/1982,4.715,0.060
01/10/1982,4.715,0.042
01/11/1982,4.957,0.034
01/12/1982,5.165,0.025
01/13/1982,5.203,0.026
01/14/1982,5.203,0.023
01/15/1982,5.203,0.019
01/16/1982,5.203,0.015
01/17/1982,5.203,0.010
01/18/1982,5.203,0.008
01/19/1982,5.203,0.006
01/20/1982,5.276,0.006
01/21/1982,6.522,0.115
01/22/1982,7.510,0.195
01/23/1982,7.567,0.193
01/24/1982,7.567,0.169
01/25/1982,7.567,0.140
01/26/1982,7.567,0.100
01/27/1982,7.567,0.083
01/28/1982,7.567,0.076
01/29/1982,7.835,0.074
01/30/1982,8.007,0.074
01/31/1982,8.011,0.067
02/01/1982,8.011,0.057
02/02/1982,8.011,0.052
02/03/1982,8.013,0.049
02/04/1982,8.013,0.044
02/05/1982,8.013,0.042
02/06/1982,8.013,0.041
02/07/1982,8.013,0.040
02/08/1982,8.084,0.035
02/09/1982,8.189,0.036
02/10/1982,8.477,0.035
02/11/1982,9.766,0.030
02/12/1982,10.343,0.025
02/13/1982,10.343,0.021
02/14/1982,10.343,0.014
02/15/1982,10.351,0.012
02/16/1982,10.367,0.010
02/17/1982,10.381,0.009
02/18/1982,10.384,0.007
02/19/1982,10.385,0.005
02/20/1982,10.385,0.004
02/21/1982,10.385,0.003
02/22/1982,10.385,0.002
02/23/1982,10.385,0.001
02/24/1982,10.385,0.000
02/25/1982,10.385,0.000
02/26/1982,10.385,0.000
02/27/1982,10.385,0.000
02/28/1982,10.385,0.000
03/01/1982,10.385,0.000
03/02/1982,10.406,0.000
03/03/1982,10.469,0.000
03/04/1982,10.486,0.000
03/05/1982,10.486,0.000
03/06/1982,10.486,0.000
03/07/1982,10.486,0.000
03/08/1982,10.486,0.000
03/09/1982,10.486,0.000
03/10/1982,10.486,0.000
03/11/1982,10.502,0.000
03/12/1982,10.748,0.000
03/13/1982,11.104,0.000
03/14/1982,11.244,0.000
03/15/1982,12.200,0.001
03/16/1982,12.726,0.014
03/17/1982,12.967,0.021
03/18/1982,14.616,0.097
03/19/1982,15.618,0.136
03/20/1982,15.765,0.136
03/21/1982,15.765,0.129
03/22/1982,15.765,0.111
03/23/1982,15.765,0.090
03/24/1982,15.765,0.080
03/25/1982,15.766,0.034
03/26/1982,16.142,0.012
03/27/1982,16.417,0.008
03/28/1982,16.423,0.004
03/29/1982,16.742,0.020
03/30/1982,17.080,0.027
03/31/1982,17.163,0.021
04/01/1982,17.163,0.008
04/02/1982,17.924,0.041
04/03/1982,18.270,0.034
04/04/1982,18.270,0.022
04/05/1982,18.270,0.016
04/06/1982,18.270,0.010
04/07/1982,18.270,0.009
04/08/1982,18.270,0.008
04/09/1982,18.270,0.006
04/10/1982,18.271,0.003
04/11/1982,18.271,0.001
04/12/1982,18.272,0.000
04/13/1982,18.272,0.000
04/14/1982,18.272,0.000
04/15/1982,18.272,0.000
04/16/1982,18.272,0.000
04/17/1982,18.272,0.000
04/18/1982,18.272,0.000
04/19/1982,18.272,0.000
04/20/1982,18.272,0.000
04/21/1982,18.272,0.000
04/22/1982,18.272,0.000
04/23/1982,18.272,0.000
04/24/1982,18.272,0.000
04/25/1982,18.272,0.000
04/26/1982,18.272,0.000
04/27/1982,18.272,0.000
04/28/1982,18.272,0.000
04/29/1982,18.272,0.000
04/30/1982,18.272,0.000
05/01/1982,18.272,0.000
05/02/1982,18.273,0.000
05/03/1982,18.273,0.000
05/04/1982,18.309,0.000
05/05/1982,18.339,0.000
05/06/1982,18.339,0.000
05/07/1982,18.339,0.000
05/08/1982,18.339,0.000
05/09/1982,18.349,0.000
05/10/1982,18.357,0.000
05/11/1982,18.380,0.000
05/12/1982,18.531,0.000
05/13/1982,18.564,0.000
05/14/1982,18.564,0.000
05/15/1982,18.564,0.000
05/16/1982,18.564,0.000
05/17/1982,18.564,0.000
05/18/1982,18.564,0.000
05/19/1982,18.564,0.000
05/20/1982,18.564,0.000
05/21/1982,18.564,0.000
05/22/1982,18.564,0.000
05/23/1982,18.566,0.000
05/24/1982,18.567,0.000
05/25/1982,18.567,0.000
05/26/1982,18.567,0.000
05/27/1982,18.602,0.000
05/28/1982,18.629,0.000
05/29/1982,18.630,0.000
05/30/1982,18.630,0.000
05/31/1982,18.630,0.000
06/01/1982,18.630,0.000
06/02/1982,18.630,0.000
06/03/1982,18.630,0.000
06/04/1982,18.630,0.000
06/05/1982,18.630,0.000
06/06/1982,18.630,0.000
06/07/1982,18.630,0.000
06/08/1982,18.630,0.000
06/09/1982,18.630,0.000
06/10/1982,18.630,0.000
06/11/1982,18.630,0.000
06/12/1982,18.630,0.000
06/13/1982,18.630,0.000
06/14/1982,18.630,0.000
06/15/1982,18.630,0.000
06/16/1982,18.630,0.000
06/17/1982,18.668,0.000
06/18/1982,18.705,0.000
06/19/1982,18.711,0.000
06/20/1982,18.711,0.000
06/21/1982,18.722,0.000
06/22/1982,18.750,0.000
06/23/1982,18.753,0.000
06/24/1982,18.753,0.000
06/25/1982,18.753,0.000
06/26/1982,18.753,0.000
06/27/1982,18.753,0.000
06/28/1982,18.753,0.000
06/29/1982,18.753,0.000
06/30/1982,18.753,0.000
07/01/1982,18.753,0.000
07/02/1982,18.753,0.000
07/03/1982,18.753,0.000
07/04/1982,18.753,0.000
07/05/1982,18.753,0.000
07/06/1982,18.753,0.000
07/07/1982,18.753,0.000
07/08/1982,18.753,0.000
07/09/1982,18.753,0.000
07/10/1982,18.753,0.000
07/11/1982,18.753,0.000
07/12/1982,18.753,0.000
07/13/1982,18.753,0.000
07/14/1982,18.753,0.000
07/15/1982,18.753,0.000
07/16/1982,18.753,0.000
07/17/1982,18.753,0.000
07/18/1982,18.753,0.000
07/19/1982,18.753,0.000
07/20/1982,18.753,0.000
07/21/1982,18.753,0.000
07/22/1982,18.758,0.000
07/23/1982,18.759,0.000
07/24/1982,18.769,0.000
07/25/1982,18.769,0.000
07/26/1982,18.778,0.000
07/27/1982,18.787,0.000
07/28/1982,18.808,0.000
07/29/1982,18.808,0.000
07/30/1982,18.808,0.000
07/31/1982,18.808,0.000
08/01/1982,18.808,0.000
08/02/1982,18.808,0.000
08/03/1982,18.808,0.000
08/04/1982,18.808,0.000
08/05/1982,18.808,0.000
08/06/1982,18.808,0.000
08/07/1982,18.808,0.000
08/08/1982,18.808,0.000
08/09/1982,18.808,0.000
08/10/1982,18.808,0.000
08/11/1982,18.808,0.000
08/12/1982,18.808,0.000
08/13/1982,18.808,0.000
08/14/1982,18.808,0.000
08/15/1982,18.808,0.000
08/16/1982,18.808,0.000
08/17/1982,18.808,0.000
08/18/1982,18.808,0.000
08/19/1982,18.808,0.000
08/20/1982,18.808,0.000
08/21/1982,18.814,0.000
08/22/1982,18.817,0.000
08/23/1982,18.817,0.000
08/24/1982,18.817,0.000
08/25/1982,18.826,0.000
08/26/1982,18.959,0.000
08/27/1982,19.053,0.000
08/28/1982,19.061,0.000
08/29/1982,19.061,0.000
08/30/1982,19.061,0.000
08/31/1982,19.061,0.000
09/01/1982,19.061,0.000
09/02/1982,19.061,0.000
09/03/1982,19.061,0.000
09/04/1982,19.061,0.000
09/05/1982,19.061,0.000
09/06/1982,19.061,0.000
09/07/1982,19.061,0.000
09/08/1982,19.063,0.000
09/09/1982,19.082,0.000
09/10/1982,19.082,0.000
09/11/1982,19.082,0.000
09/12/1982,19.082,0.000
09/13/1982,19.082,0.000
09/14/1982,19.082,0.000
09/15/1982,19.082,0.000
09/16/1982,19.102,0.000
09/17/1982,19.195,0.000
09/18/1982,19.370,0.000
09/19/1982,19.407,0.000
09/20/1982,19.407,0.000
09/21/1982,19.407,0.000
09/22/1982,19.407,0.000
09/23/1982,19.409,0.000
09/24/1982,19.409,0.000
09/25/1982,19.409,0.000
09/26/1982,19.519,0.000
09/27/1982,19.862,0.000
09/28/1982,19.961,0.000
09/29/1982,19.966,0.000
09/30/1982,19.966,0.000
10/01/1982,0.000,0.000
10/02/1982,0.000,0.000
10/03/1982,0.000,0.000
10/04/1982,0.000,0.000
10/05/1982,0.000,0.000
10/06/1982,0.000,0.000
10/07/1982,0.000,0.000
10/08/1982,0.000,0.000
10/09/1982,0.000,0.000
10/10/1982,0.000,0.000
10/11/1982,0.000,0.000
10/12/1982,0.000,0.000
10/13/1982,0.000,0.000
10/14/1982,0.000,0.000
10/15/1982,0.000,0.000
10/16/1982,0.000,0.000
10/17/1982,0.000,0.000
10/18/1982,0.000,0.000
10/19/1982,0.000,0.000
10/20/1982,0.000,0.000
10/21/1982,0.000,0.000
10/22/1982,0.000,0.000
10/23/1982,0.000,0.000
10/24/1982,0.000,0.000
10/25/1982,0.000,0.000
10/26/1982,0.044,0.000
10/27/1982,0.183,0.000
10/28/1982,0.212,0.000
10/29/1982,0.212,0.000
10/30/1982,0.213,0.000
10/31/1982,0.217,0.000
11/01/1982,0.224,0.000
11/02/1982,0.224,0.000
11/03/1982,0.225,0.000
11/04/1982,0.225,0.000
11/05/1982,0.225,0.000
11/06/1982,0.225,0.000
11/07/1982,0.225,0.000
11/08/1982,0.236,0.000
11/09/1982,0.248,0.000
11/10/1982,1.112,0.000
11/11/1982,1.975,0.044
11/12/1982,2.129,0.025
11/13/1982,2.130,0.023
11/14/1982,2.130,0.017
11/15/1982,2.130,0.008
11/16/1982,2.130,0.002
11/17/1982,2.130,0.001
11/18/1982,2.134,0.000
11/19/1982,2.361,0.000
11/20/1982,2.655,0.000
11/21/1982,2.695,0.000
11/22/1982,2.695,0.000
11/23/1982,2.695,0.000
11/24/1982,2.695,0.000
11/25/1982,2.695,0.000
11/26/1982,2.695,0.000
11/27/1982,2.695,0.000
11/28/1982,2.695,0.000
11/29/1982,2.904,0.000
11/30/1982,3.685,0.000
12/01/1982,5.093,0.028
12/02/1982,5.496,0.053
12/03/1982,5.512,0.047
12/04/1982,5.513,0.035
12/05/1982,5.513,0.026
12/06/1982,5.513,0.022
12/07/1982,5.513,0.018
12/08/1982,5.626,0.017
12/09/1982,5.886,0.014
12/10/1982,6.360,0.013
12/11/1982,6.521,0.012
12/12/1982,6.521,0.010
12/13/1982,6.521,0.008
12/14/1982,6.521,0.007
12/15/1982,6.521,0.006
12/16/1982,6.521,0.005
12/17/1982,6.521,0.003
12/18/1982,6.521,0.003
12/19/1982,6.521,0.002
12/20/1982,6.521,0.001
12/21/1982,6.521,0.001
12/22/1982,6.522,0.001
12/23/1982,7.201,0.001
12/24/1982,7.628,0.025
12/25/1982,7.628,0.020
12/26/1982,7.628,0.016
12/27/1982,7.628,0.013
12/28/1982,7.628,0.008
12/29/1982,7.628,0.007
12/30/1982,7.846,0.030
12/31/1982,7.965,0.039
01/01/1983,7.969,0.036
01/02/1983,7.969,0.026
01/03/1983,7.969,0.021
01/04/1983,7.969,0.012
01/05/1983,7.969,0.006
01/06/1983,7.969,0.003
01/07/1983,7.969,0.001
01/08/1983,7.969,0.001
01/09/1983,7.969,0.000
01/10/1983,7.969,0.000
01/11/1983,7.969,0.000
01/12/1983,7.969,0.000
01/13/1983,7.969,0.000
01/14/1983,7.969,0.000
01/15/1983,7.969,0.000
01/16/1983,7.969,0.000
01/17/1983,7.970,0.000
01/18/1983,7.973,0.000
01/19/1983,8.077,0.000
01/20/1983,8.263,0.003
01/21/1983,8.268,0.003
01/22/1983,8.270,0.003
01/23/1983,8.359,0.000
01/24/1983,8.408,0.000
01/25/1983,8.596,0.000
01/26/1983,8.655,0.000
01/27/1983,8.703,0.000
01/28/1983,9.700,0.001
01/29/1983,10.523,0.000
01/30/1983,10.906,0.009
01/31/1983,10.906,0.007
02/01/1983,10.906,0.006
02/02/1983,10.908,0.004
02/03/1983,11.573,0.044
02/04/1983,12.013,0.070
02/05/1983,12.137,0.066
02/06/1983,12.253,0.050
02/07/1983,12.540,0.037
02/08/1983,13.217,0.030
02/09/1983,13.652,0.029
02/10/1983,13.679,0.019
02/11/1983,13.679,0.014
02/12/1983,13.679,0.010
02/13/1983,13.680,0.005
02/14/1983,13.681,0.004
02/15/1983,13.681,0.003
02/16/1983,13.681,0.002
02/17/1983,13.681,0.001
02/18/1983,13.681,0.001
02/19/1983,13.681,0.000
02/20/1983,13.681,0.000
02/21/1983,13.681,0.000
02/22/1983,13.681,0.000
02/23/1983,13.681,0.000
02/24/1983,13.739,0.000
02/25/1983,14.243,0.000
02/26/1983,14.567,0.001
02/27/1983,15.079,0.000
02/28/1983,16.087,0.000
03/01/1983,16.674,0.000
03/02/1983,17.957,0.000
03/03/1983,19.703,0.000
03/04/1983,21.137,0.002
03/05/1983,21.728,0.002
03/06/1983,22.006,0.001
03/07/1983,22.135,0.000
03/08/1983,22.148,0.000
03/09/1983,22.148,0.000
03/10/1983,22.148,0.000
03/11/1983,22.148,0.000
03/12/1983,22.148,0.000
03/13/1983,22.148,0.000
03/14/1983,22.222,0.000
03/15/1983,22.270,0.000
03/16/1983,22.271,0.000
03/17/1983,22.337,0.000
03/18/1983,23.015,0.002
03/19/1983,23.912,0.034
03/20/1983,24.179,0.031
03/21/1983,24.397,0.027
03/22/1983,24.994,0.042
03/23/1983,25.336,0.029
03/24/1983,25.861,0.018
03/25/1983,26.542,0.041
03/26/1983,26.640,0.041
03/27/1983,26.646,0.033
03/28/1983,26.650,0.025
03/29/1983,26.689,0.020
03/30/1983,26.690,0.014
03/31/1983,26.690,0.005
04/01/1983,26.690,0.002
04/02/1983,26.690,0.001
04/03/1983,26.690,0.000
04/04/1983,26.690,0.000
04/05/1983,26.691,0.000
04/06/1983,26.694,0.000
04/07/1983,26.700,0.000
04/08/1983,26.700,0.000
04/09/1983,26.700,0.000
04/10/1983,26.700,0.000
04/11/1983,26.826,0.000
04/12/1983,26.964,0.004
04/13/1983,27.187,0.022
04/14/1983,27.232,0.014
04/15/1983,27.232,0.007
04/16/1983,27.232,0.001
04/17/1983,27.232,0.000
04/18/1983,27.445,0.000
04/19/1983,27.653,0.000
04/20/1983,27.778,0.000
04/21/1983,28.353,0.000
04/22/1983,28.747,0.000
04/23/1983,28.845,0.000
04/24/1983,28.845,0.000
04/25/1983,28.845,0.000
04/26/1983,28.846,0.000
04/27/1983,28.846,0.000
04/28/1983,28.846,0.000
04/29/1983,28.858,0.000
04/30/1983,29.382,0.000
05/01/1983,29.670,0.000
05/02/1983,29.813,0.000
05/03/1983,29.834,0.000
05/04/1983,29.834,0.000
05/05/1983,29.834,0.000
05/06/1983,29.859,0.000
05/07/1983,29.863,0.000
05/08/1983,29.863,0.000
05/09/1983,29.863,0.000
05/10/1983,29.863,0.000
05/11/1983,29.863,0.000
05/12/1983,29.863,0.000
05/13/1983,29.863,0.000
05/14/1983,29.863,0.000
05/15/1983,29.863,0.000
05/16/1983,29.863,0.000
05/17/1983,29.863,0.000
05/18/1983,29.863,0.000
05/19/1983,29.863,0.000
05/20/1983,29.863,0.000
05/21/1983,29.863,0.000
05/22/1983,29.863,0.000
05/23/1983,29.863,0.000
05/24/1983,29.863,0.000
05/25/1983,29.863,0.000
05/26/1983,29.863,0.000
05/27/1983,29.863,0.000
05/28/1983,29.863,0.000
05/29/1983,29.863,0.000
05/30/1983,29.863,0.000
05/31/1983,29.863,0.000
06/01/1983,29.864,0.000
06/02/1983,29.864,0.000
06/03/1983,29.864,0.000
06/04/1983,29.864,0.000
06/05/1983,29.864,0.000
06/06/1983,29.864,0.000
06/07/1983,29.864,0.000
06/08/1983,29.864,0.000
06/09/1983,29.875,0.000
06/10/1983,29.881,0.000
06/11/1983,29.881,0.000
06/12/1983,29.881,0.000
06/13/1983,29.881,0.000
06/14/1983,29.881,0.000
06/15/1983,29.881,0.000
06/16/1983,29.881,0.000
06/17/1983,29.881,0.000
06/18/1983,29.881,0.000
06/19/1983,29.881,0.000
06/20/1983,29.881,0.000
06/21/1983,29.881,0.000
06/22/1983,29.881,0.000
06/23/1983,29.881,0.000
06/24/1983,29.881,0.000
06/25/1983,29.881,0.000
06/26/1983,29.881,0.000
06/27/1983,29.881,0.000
06/28/1983,29.881,0.000
06/29/1983,29.881,0.000
06/30/1983,29.881,0.000
07/01/1983,29.881,0.000
07/02/1983,29.881,0.000
07/03/1983,29.881,0.000
07/04/1983,29.881,0.000
07/05/1983,29.881,0.000
07/06/1983,29.881,0.000
07/07/1983,29.881,0.000
07/08/1983,29.881,0.000
07/09/1983,29.881,0.000
07/10/1983,29.881,0.000
07/11/1983,29.881,0.000
07/12/1983,29.881,0.000
07/13/1983,29.881,0.000
07/14/1983,29.881,0.000
07/15/1983,29.881,0.000
07/16/1983,29.881,0.000
07/17/1983,29.881,0.000
07/18/1983,29.881,0.000
07/19/1983,29.881,0.000
07/20/1983,29.881,0.000
07/21/1983,29.881,0.000
07/22/1983,29.881,0.000
07/23/1983,29.881,0.000
07/24/1983,29.881,0.000
07/25/1983,29.881,0.000
07/26/1983,29.881,0.000
07/27/1983,29.881,0.000
07/28/1983,29.881,0.000
07/29/1983,29.881,0.000
07/30/1983,29.881,0.000
07/31/1983,29.881,0.000
08/01/1983,29.881,0.000
08/02/1983,29.881,0.000
08/03/1983,29.881,0.000
08/04/1983,29.881,0.000
08/05/1983,29.882,0.000
08/06/1983,29.897,0.000
08/07/1983,29.958,0.000
08/08/1983,30.035,0.000
08/09/1983,30.117,0.000
08/10/1983,30.168,0.000
08/11/1983,30.168,0.000
08/12/1983,30.168,0.000
08/13/1983,30.168,0.000
08/14/1983,30.168,0.000
08/15/1983,30.246,0.000
08/16/1983,30.255,0.000
08/17/1983,30.536,0.000
08/18/1983,30.842,0.000
08/19/1983,30.928,0.000
08/20/1983,30.930,0.000
08/21/1983,30.930,0.000
08/22/1983,30.930,0.000
08/23/1983,30.930,0.000
08/24/1983,30.930,0.000
08/25/1983,30.930,0.000
08/26/1983,30.930,0.000
08/27/1983,30.930,0.000
08/28/1983,30.930,0.000
08/29/1983,30.930,0.000
08/30/1983,30.930,0.000
08/31/1983,30.930,0.000
09/01/1983,30.930,0.000
09/02/1983,30.952,0.000
09/03/1983,30.960,0.000
09/04/1983,30.960,0.000
09/05/1983,30.960,0.000
09/06/1983,30.960,0.000
09/07/1983,30.960,0.000
09/08/1983,30.960,0.000
09/09/1983,30.960,0.000
09/10/1983,30.960,0.000
09/11/1983,30.960,0.000
09/12/1983,30.960,0.000
09/13/1983,30.961,0.000
09/14/1983,30.961,0.000
09/15/1983,30.961,0.000
09/16/1983,30.961,0.000
09/17/1983,30.961,0.000
09/18/1983,30.961,0.000
09/19/1983,30.961,0.000
09/20/1983,30.969,0.000
09/21/1983,30.979,0.000
09/22/1983,30.979,0.000
09/23/1983,30.983,0.000
09/24/1983,30.983,0.000
09/25/1983,30.983,0.000
09/26/1983,30.987,0.000
09/27/1983,30.997,0.000
09/28/1983,30.997,0.000
09/29/1983,30.997,0.000
09/30/1983,31.120,0.000
10/01/1983,0.200,0.000
10/02/1983,0.388,0.000
10/03/1983,0.431,0.000
10/04/1983,0.431,0.000
10/05/1983,0.450,0.000
10/06/1983,0.457,0.000
10/07/1983,0.496,0.000
10/08/1983,0.725,0.000
10/09/1983,0.780,0.000
10/10/1983,0.780,0.000
10/11/1983,0.780,0.000
10/12/1983,0.780,0.000
10/13/1983,0.780,0.000
10/14/1983,0.780,0.000
10/15/1983,0.780,0.000
10/16/1983,0.780,0.000
10/17/1983,0.780,0.000
10/18/1983,0.782,0.000
10/19/1983,0.784,0.000
10/20/1983,0.784,0.000
10/21/1983,0.784,0.000
10/22/1983,0.784,0.000
10/23/1983,0.784,0.000
10/24/1983,0.784,0.000
10/25/1983,0.784,0.000
10/26/1983,0.784,0.000
10/27/1983,0.784,0.000
10/28/1983,0.790,0.000
10/29/1983,0.790,0.000
10/30/1983,0.790,0.000
10/31/1983,0.790,0.000
11/01/1983,0.790,0.000
11/02/1983,0.791,0.000
11/03/1983,0.793,0.000
11/04/1983,0.793,0.000
11/05/1983,0.793,0.000
11/06/1983,0.793,0.000
11/07/1983,0.793,0.000
11/08/1983,0.793,0.000
11/09/1983,0.793,0.000
11/10/1983,0.793,0.000
11/11/1983,0.793,0.000
11/12/1983,1.106,0.000
11/13/1983,1.688,0.000
11/14/1983,1.896,0.000
11/15/1983,1.927,0.000
11/16/1983,1.927,0.000
11/17/1983,1.927,0.000
11/18/1983,2.007,0.000
11/19/1983,2.066,0.000
11/20/1983,2.081,0.000
11/21/1983,2.816,0.045
11/22/1983,3.298,0.049
11/23/1983,3.321,0.040
11/24/1983,3.321,0.029
11/25/1983,3.722,0.022
11/26/1983,4.089,0.033
11/27/1983,4.090,0.030
11/28/1983,4.090,0.025
11/29/1983,4.093,0.020
11/30/1983,4.093,0.016
12/01/1983,4.137,0.012
12/02/1983,4.249,0.009
12/03/1983,4.265,0.007
12/04/1983,4.685,0.007
12/05/1983,4.846,0.007
12/06/1983,4.846,0.007
12/07/1983,4.846,0.005
12/08/1983,4.846,0.004
12/09/1983,4.846,0.002
12/10/1983,5.003,0.001
12/11/1983,5.075,0.001
12/12/1983,5.079,0.000
12/13/1983,5.084,0.000
12/14/1983,5.084,0.000
12/15/1983,5.084,0.000
12/16/1983,5.084,0.000
12/17/1983,5.085,0.000
12/18/1983,5.089,0.000
12/19/1983,5.090,0.000
12/20/1983,5.090,0.000
12/21/1983,5.090,0.000
12/22/1983,5.090,0.000
12/23/1983,5.090,0.000
12/24/1983,5.090,0.000
12/25/1983,5.570,0.000
12/26/1983,6.539,0.000
12/27/1983,6.989,0.000
12/28/1983,7.278,0.000
12/29/1983,7.345,0.000
12/30/1983,7.345,0.000
12/31/1983,7.345,0.000
01/01/1984,7.345,0.000
01/02/1984,7.345,0.000
01/03/1984,7.345,0.000
01/04/1984,7.345,0.000
01/05/1984,7.347,0.000
01/06/1984,7.422,0.000
01/07/1984,7.432,0.000
01/08/1984,7.433,0.000
01/09/1984,7.433,0.000
01/10/1984,7.433,0.000
01/11/1984,7.433,0.000
01/12/1984,7.433,0.000
01/13/1984,7.433,0.000
01/14/1984,7.454,0.000
01/15/1984,7.454,0.000
01/16/1984,7.454,0.000
01/17/1984,7.605,0.000
01/18/1984,7.695,0.000
01/19/1984,7.695,0.000
01/20/1984,7.695,0.000
01/21/1984,7.695,0.000
01/22/1984,7.695,0.000
01/23/1984,7.695,0.000
01/24/1984,7.695,0.000
01/25/1984,7.695,0.000
01/26/1984,7.695,0.000
01/27/1984,7.695,0.000
01/28/1984,7.695,0.000
01/29/1984,7.695,0.000
01/30/1984,7.695,0.000
01/31/1984,7.695,0.000
02/01/1984,7.695,0.000
02/02/1984,7.695,0.000
02/03/1984,7.695,0.000
02/04/1984,7.695,0.000
02/05/1984,7.695,0.000
02/06/1984,7.695,0.000
02/07/1984,7.695,0.000
02/08/1984,7.695,0.000
02/09/1984,7.695,0.000
02/10/1984,7.725,0.000
02/11/1984,7.745,0.000
02/12/1984,7.745,0.000
02/13/1984,7.745,0.000
02/14/1984,7.745,0.000
02/15/1984,7.752,0.000
02/16/1984,7.753,0.000
02/17/1984,7.757,0.000
02/18/1984,7.758,0.000
02/19/1984,7.758,0.000
02/20/1984,7.758,0.000
02/21/1984,7.758,0.000
02/22/1984,7.758,0.000
02/23/1984,7.758,0.000
02/24/1984,7.758,0.000
02/25/1984,7.758,0.000
02/26/1984,7.758,0.000
02/27/1984,7.758,0.000
02/28/1984,7.758,0.000
02/29/1984,7.758,0.000
03/01/1984,7.758,0.000
03/02/1984,7.758,0.000
03/03/1984,7.758,0.000
03/04/1984,7.758,0.000
03/05/1984,7.758,0.000
03/06/1984,7.758,0.000
03/07/1984,7.758,0.000
03/08/1984,7.758,0.000
03/09/1984,7.758,0.000
03/10/1984,7.758,0.000
03/11/1984,7.758,0.000
03/12/1984,7.758,0.000
03/13/1984,7.758,0.000
03/14/1984,7.759,0.000
03/15/1984,7.798,0.000
03/16/1984,7.807,0.000
03/17/1984,7.807,0.000
03/18/1984,7.807,0.000
03/19/1984,7.807,0.000
03/20/1984,7.807,0.000
03/21/1984,7.807,0.000
03/22/1984,7.807,0.000
03/23/1984,7.807,0.000
03/24/1984,7.807,0.000
03/25/1984,7.807,0.000
03/26/1984,7.807,0.000
03/27/1984,7.829,0.000
03/28/1984,7.843,0.000
03/29/1984,7.843,0.000
03/30/1984,7.843,0.000
03/31/1984,7.844,0.000
04/01/1984,7.928,0.000
04/02/1984,7.983,0.001
04/03/1984,7.984,0.000
04/04/1984,7.984,0.000
04/05/1984,7.984,0.000
04/06/1984,8.034,0.000
04/07/1984,8.247,0.000
04/08/1984,8.281,0.000
04/09/1984,8.281,0.000
04/10/1984,8.281,0.000
04/11/1984,8.281,0.000
04/12/1984,8.281,0.000
04/13/1984,8.281,0.000
04/14/1984,8.281,0.000
04/15/1984,8.281,0.000
04/16/1984,8.281,0.000
04/17/1984,8.281,0.000
04/18/1984,8.281,0.000
04/19/1984,8.394,0.000
04/20/1984,8.537,0.000
04/21/1984,8.540,0.000
04/22/1984,8.540,0.000
04/23/1984,8.540,0.000
04/24/1984,8.540,0.000
04/25/1984,8.540,0.000
04/26/1984,8.540,0.000
04/27/1984,8.540,0.000
04/28/1984,8.607,0.000
04/29/1984,8.626,0.000
04/30/1984,8.626,0.000
05/01/1984,8.626,0.000
05/02/1984,8.626,0.000
05/03/1984,8.626,0.000
05/04/1984,8.626,0.000
05/05/1984,8.626,0.000
05/06/1984,8.626,0.000
05/07/1984,8.626,0.000
05/08/1984,8.626,0.000
05/09/1984,8.626,0.000
05/10/1984,8.626,0.000
05/11/1984,8.626,0.000
05/12/1984,8.626,0.000
05/13/1984,8.626,0.000
05/14/1984,8.626,0.000
05/15/1984,8.626,0.000
05/16/1984,8.626,0.000
05/17/1984,8.626,0.000
05/18/1984,8.626,0.000
05/19/1984,8.626,0.000
05/20/1984,8.626,0.000
05/21/1984,8.626,0.000
05/22/1984,8.626,0.000
05/23/1984,8.626,0.000
05/24/1984,8.626,0.000
05/25/1984,8.626,0.000
05/26/1984,8.626,0.000
05/27/1984,8.626,0.000
05/28/1984,8.626,0.000
05/29/1984,8.626,0.000
05/30/1984,8.626,0.000
05/31/1984,8.626,0.000
06/01/1984,8.626,0.000
06/02/1984,8.626,0.000
06/03/1984,8.626,0.000
06/04/1984,8.627,0.000
06/05/1984,8.627,0.000
06/06/1984,8.638,0.000
06/07/1984,8.674,0.000
06/08/1984,8.709,0.000
06/09/1984,8.709,0.000
06/10/1984,8.709,0.000
06/11/1984,8.709,0.000
06/12/1984,8.709,0.000
06/13/1984,8.709,0.000
06/14/1984,8.709,0.000
06/15/1984,8.709,0.000
06/16/1984,8.709,0.000
06/17/1984,8.709,0.000
06/18/1984,8.709,0.000
06/19/1984,8.709,0.000
06/20/1984,8.709,0.000
06/21/1984,8.709,0.000
06/22/1984,8.709,0.000
06/23/1984,8.709,0.000
06/24/1984,8.709,0.000
06/25/1984,8.709,0.000
06/26/1984,8.709,0.000
06/27/1984,8.709,0.000
06/28/1984,8.709,0.000
06/29/1984,8.709,0.000
06/30/1984,8.709,0.000
07/01/1984,8.709,0.000
07/02/1984,8.711,0.000
07/03/1984,8.712,0.000
07/04/1984,8.714,0.000
07/05/1984,8.714,0.000
07/06/1984,8.715,0.000
07/07/1984,8.719,0.000
07/08/1984,8.782,0.000
07/09/1984,8.785,0.000
07/10/1984,8.786,0.000
07/11/1984,8.786,0.000
07/12/1984,8.786,0.000
07/13/1984,8.786,0.000
07/14/1984,8.931,0.000
07/15/1984,9.030,0.000